Hourly Data Report for August 04, 2015

IQALUIT CLIMATE
NUNAVUT

63°44'50.000" N
68°32'40.000" W
33.50 m
2402592
71321
XFB

Download Data

Hourly Data (August 2015)
Hourly Data Report for August 4, 2015
TIME
LST
Temp Definition
°C
Dew Point Definition
°C
Rel Hum Definition
%
Precip. Amount Definition
mm

Wind Dir Definition
10's deg

Wind Spd Definition
km/h
Visibility Definition
km
Stn Press Definition
kPa
Hmdx Definition


Wind Chill Definition


Weather Definition


00:00 2.4 2.3 99 0.0 19 3   102.15     LegendNANA
01:00 2.7 2.3 98 0.0 12 4   102.16     LegendNANA
02:00 2.4 1.9 97 0.0 14 6   102.16     LegendNANA
03:00 2.4 2.1 98 0.0 16 3   102.15     LegendNANA
04:00 2.9 2.3 96 0.0 17 4   102.14     LegendNANA
05:00 2.5 1.8 95 0.0 15 7   102.14     LegendNANA
06:00 2.7 2.0 95 0.0 18 4   102.15     LegendNANA
07:00 3.2 2.2 93 0.0 16 4   102.13     LegendNANA
08:00 3.6 2.7 94 0.0 15 8   102.15     LegendNANA
09:00 3.2 2.2 93 0.0 15 7   102.14     LegendNANA
10:00 3.5 2.2 91 0.0 14 6   102.11     LegendNANA
11:00 3.9 2.6 91 0.0 15 9   102.08     LegendNANA
12:00 4.7 2.8 87 0.0 16 13   102.04     LegendNANA
13:00 5.2 3.2 88 0.0 16 14   102.03     LegendNANA
14:00 4.6 2.4 86 0.0 16 10   102.02     LegendNANA
15:00 5.2 3.0 86 0.0 15 10   102.01     LegendNANA
16:00 4.7 2.2 84 0.0 15 10   101.99     LegendNANA
17:00 4.1 1.8 85 0.0 16 15   101.98     LegendNANA
18:00 3.0 1.3 89 0.0 15 17   101.97     LegendNANA
19:00 2.9 1.6 92 0.0 16 14   101.97     LegendNANA
20:00 2.5 1.8 95 0.0 15 14   101.97     LegendNANA
21:00 2.4 1.3 92 0.0 16 14   101.98     LegendNANA
22:00 2.2 1.1 93 0.0 16 10   101.99     LegendNANA
23:00 2.2 0.9 92 0.0 16 9   101.95     LegendNANA

Notes on Data Quality.

Legend

  • E = Estimated
  • M = Missing
  • NA = Not Available*
  • [empty] = Indicates an unobserved value
Date modified: